This demonstration page uses our WeatherBlox Daily Observations layout. Learn more.

Left ArrowRight Arrow

Hourly Observations for November 6, 2015

Temp ( °F °C ) Dew Point ( °F °C ) Humidity (%) Winds ( mph kmh ) Pressure ( in mb ) Visibility ( mi km ) Precip ( " mm )
12:53 am 00:53 Cloudy with Light Rain 66 18.9 65 18.3 96 96 Calm 30.16 1021 6 10 0.00 0.03
1:53 am 01:53 Cloudy with Mist and Fog 67 19.4 65 18.3 93 93 Calm 30.16 1021 2 3 0.00 0.03
2:18 am 02:18 Cloudy with Mist and Fog 66 19 64 18 94 94 Calm 30.18 1022 1 2 0.00 0.00
2:39 am 02:39 Cloudy with Mist and Fog 67 19.4 65 18.3 93 93 Calm 30.18 1022 1 1 0.00 0.00
2:53 am 02:53 Cloudy with Mist and Fog 66 18.9 65 18.3 96 96 Calm 30.15 1021 1 1 0.00 0.00
3:21 am 03:21 Mostly Cloudy with Rain 67 19.4 65 18.3 93 93 Calm 30.15 1021 1 1 0.03 0.76
3:33 am 03:33 Cloudy with Light Rain 67 19.4 65 18.3 93 93 Calm 30.15 1021 2 3 0.05 1.27
3:53 am 03:53 Cloudy with Light Rain 67 19.4 65 18.3 93 93 Calm 30.14 1021 3 5 0.06 1.52
4:05 am 04:05 Cloudy with Mist and Fog 67 19.4 65 18.3 93 93 WNW 3 6 30.15 1021 5 8 0.00 0.03
4:53 am 04:53 Cloudy with Light Rain 67 19.4 65 18.3 93 93 Calm 30.14 1021 5 8 0.01 0.25
4:58 am 04:58 Cloudy with Rain 67 19.4 65 18.3 93 93 Calm 30.15 1021 3 4 0.01 0.25
5:09 am 05:09 Cloudy with Heavy Rain 67 19.4 66 18.9 97 97 Calm 30.15 1021 2 3 0.06 1.52
5:16 am 05:16 Cloudy with Rain 66 19 66 19 100 100 Calm 30.15 1021 2 3 0.00 0.00
5:53 am 05:53 Cloudy with Light Rain 67 19.4 66 18.9 97 97 Calm 30.15 1021 2 3 0.14 3.56
6:53 am 06:53 Cloudy with Mist and Fog 68 20 66 18.9 93 93 Calm 30.16 1021 2 3 0.00 0.03
7:00 am 07:00 Cloudy 68 20 66 18.9 93 93 Calm 30.18 1022 9 14 0.00 0.00
7:53 am 07:53 Cloudy 69 20.6 67 19.4 93 93 Calm 30.16 1022 10 16 0.00 0.00
8:53 am 08:53 Cloudy 71 21.7 68 20 90 90 SSW 5 7 30.17 1022 10 16 0.00 0.03
9:21 am 09:21 Partly Cloudy 72 22.2 69 20.6 91 91 S 8 13 30.18 1022 10 16 0.00 0.00
9:53 am 09:53 Cloudy 73 22.8 68 20 84 84 SSW 7 11 30.17 1022 10 16 0.00 0.00
10:13 am 10:13 Cloudy 73 22.8 69 20.6 87 87 SSW 6 9 30.15 1021 10 16 0.00 0.00
10:22 am 10:22 Cloudy 73 23 70 21 89 89 SSW 5 7 30.15 1021 10 16 0.00 0.00
10:36 am 10:36 Cloudy with Light Rain 73 23 70 21 89 89 SW 5 7 30.15 1021 10 16 0.00 0.00
10:42 am 10:42 Cloudy with Light Rain 73 23 70 21 89 89 SSW 6 9 30.15 1021 10 16 0.00 0.00
10:53 am 10:53 Cloudy with Light Rain 74 23.3 70 21.1 88 88 S 6 9 30.17 1022 7 11 0.00 0.03
11:38 am 11:38 Cloudy 73 23 70 21 89 89 S 7 11 30.15 1021 7 11 0.00 0.00
11:53 am 11:53 Mostly Cloudy 76 24.4 70 21.1 82 82 S 8 13 30.15 1021 7 11 0.00 0.03
12:53 pm 12:53 Cloudy 76 24.4 69 20.6 79 79 VRB 6 9 30.12 1020 10 16 0.00 0.00
1:00 pm 13:00 Cloudy with Rain 75 24 70 21 83 83 WSW 8 13 30.12 1020 2 3 0.00 0.00
1:12 pm 13:12 Cloudy with Light Rain 73 22.8 69 20.6 87 87 SW 5 7 30.12 1020 3 5 0.12 3.05
1:21 pm 13:21 Cloudy with Light Rain 73 22.8 69 20.6 87 87 SSW 7 11 30.12 1020 10 16 0.12 3.05
1:53 pm 13:53 Cloudy 72 22.2 68 20 87 87 SSW 5 7 30.11 1020 10 16 0.12 3.05
2:53 pm 14:53 Cloudy 73 22.8 69 20.6 87 87 S 5 7 30.09 1019 10 16 0.00 0.00
3:53 pm 15:53 Cloudy 74 23.3 69 20.6 85 85 S 7 11 30.08 1019 10 16 0.00 0.00
4:53 pm 16:53 Mostly Cloudy 74 23.3 70 21.1 88 88 S 5 7 30.08 1019 10 16 0.00 0.00
5:53 pm 17:53 Mostly Cloudy 73 22.8 69 20.6 87 87 Calm 30.08 1019 10 16 0.00 0.00
6:53 pm 18:53 Mostly Clear 71 21.7 68 20 90 90 SW 3 6 30.10 1019 10 16 0.00 0.00
7:53 pm 19:53 Cloudy with Light Rain 71 21.7 69 20.6 94 94 WNW 6 9 30.11 1020 5 8 0.01 0.25
8:53 pm 20:53 Cloudy 71 21.7 69 20.6 94 94 Calm 30.11 1020 7 11 0.01 0.25
9:53 pm 21:53 Cloudy 71 21.7 69 20.6 94 94 S 3 6 30.11 1020 10 16 0.00 0.00
10:03 pm 22:03 Cloudy with Light Rain 72 22 68 20 88 88 SW 3 6 30.15 1021 10 16 0.00 0.00
10:41 pm 22:41 Cloudy with Light Rain 71 21.7 68 20 90 90 S 3 6 30.15 1021 8 13 0.00 0.03
10:48 pm 22:48 Cloudy with Light Rain 70 21 68 20 94 94 SSW 5 7 30.15 1021 8 13 0.00 0.00
10:53 pm 22:53 Cloudy with Rain 70 21.1 68 20 93 93 S 5 7 30.11 1020 8 13 0.02 0.51
11:03 pm 23:03 Cloudy with Light Rain 70 21 68 20 94 94 S 5 7 30.12 1020 5 8 0.00 0.00
11:16 pm 23:16 Cloudy with Light Rain 70 21 68 20 94 94 SSW 5 7 30.12 1020 5 8 0.00 0.00
11:53 pm 23:53 Cloudy with Light Rain 70 21.1 68 20 93 93 SW 3 6 30.09 1019 5 8 0.02 0.51

Powered by AerisWeather